Time,TemperatureF,DewpointF,PressureIn,WindDirection,WindDirectionDegrees,WindSpeedMPH,WindSpeedGustMPH,Humidity,HourlyPrecipIn,Conditions,Clouds,dailyrainin,SoftwareType,DateUTC
2017-09-20 00:02:00,50.4,48.7,29.73,West,276,4.0,6.0,94,0.00,,---,0.23,VWS V15.00,2017-09-20 07:02:00,
2017-09-20 00:07:00,50.3,48.6,29.73,West,281,7.0,7.0,94,0.00,,---,0.23,VWS V15.00,2017-09-20 07:07:00,
2017-09-20 00:12:00,50.0,48.1,29.72,West,275,8.0,9.0,93,0.00,,---,0.23,VWS V15.00,2017-09-20 07:12:00,
2017-09-20 00:17:00,49.9,48.0,29.72,West,273,8.0,10.0,93,0.00,,---,0.23,VWS V15.00,2017-09-20 07:17:00,
2017-09-20 00:22:00,49.7,47.8,29.72,West,275,8.0,10.0,93,0.00,,---,0.23,VWS V15.00,2017-09-20 07:22:00,
2017-09-20 00:27:00,49.7,47.8,29.72,West,275,8.0,12.0,93,0.00,,---,0.23,VWS V15.00,2017-09-20 07:27:00,
2017-09-20 00:32:00,49.8,47.6,29.72,West,279,12.0,13.0,92,0.00,,---,0.23,VWS V15.00,2017-09-20 07:32:00,
2017-09-20 00:37:00,49.9,47.7,29.72,West,273,9.0,12.0,92,0.00,,---,0.23,VWS V15.00,2017-09-20 07:37:00,
2017-09-20 00:38:00,48.8,46.6,29.69,WNW,282,6.0,8.0,92,0.00,,---,0.00,VWS V15.00,2017-09-20 07:38:00,
2017-09-20 00:42:00,49.7,47.8,29.71,West,279,8.0,10.0,93,0.00,,---,0.23,VWS V15.00,2017-09-20 07:42:00,
2017-09-20 00:47:00,49.5,47.6,29.71,West,281,7.0,10.0,93,0.00,,---,0.23,VWS V15.00,2017-09-20 07:47:00,
2017-09-20 00:53:00,49.4,47.5,29.71,West,279,8.0,10.0,93,0.00,,---,0.23,VWS V15.00,2017-09-20 07:53:00,
2017-09-20 01:12:00,49.4,47.5,29.71,West,279,8.0,10.0,93,0.00,,---,0.23,VWS V15.00,2017-09-20 08:12:00,
2017-09-20 01:17:00,49.1,46.9,29.69,West,281,9.0,12.0,92,0.00,,---,0.00,VWS V15.00,2017-09-20 08:17:00,
2017-09-20 01:22:00,49.1,46.9,29.70,West,279,9.0,11.0,92,0.00,,---,0.00,VWS V15.00,2017-09-20 08:22:00,
2017-09-20 01:27:00,49.0,46.8,29.69,WNW,282,7.0,9.0,92,0.00,,---,0.00,VWS V15.00,2017-09-20 08:27:00,
2017-09-20 01:32:00,48.9,46.7,29.69,West,281,7.0,9.0,92,0.00,,---,0.00,VWS V15.00,2017-09-20 08:32:00,
2017-09-20 01:37:00,48.9,46.7,29.69,West,279,7.0,8.0,92,0.00,,---,0.00,VWS V15.00,2017-09-20 08:37:00,
2017-09-20 14:30:00,54.6,50.2,29.75,South,188,8.0,8.0,85,0.02,,---,0.02,VWS V15.00,2017-09-20 21:30:00,
2017-09-20 14:31:00,54.5,50.1,29.75,South,191,6.0,8.0,85,0.00,,---,0.02,VWS V15.00,2017-09-20 21:31:00,
2017-09-20 14:32:00,54.6,50.2,29.75,South,191,2.0,8.0,85,0.00,,---,0.02,VWS V15.00,2017-09-20 21:32:00,
2017-09-20 14:33:00,54.6,50.2,29.75,SSW,192,6.0,8.0,85,0.00,,---,0.02,VWS V15.00,2017-09-20 21:33:00,
2017-09-20 14:34:00,54.6,50.5,29.75,South,191,3.0,8.0,86,0.00,,---,0.02,VWS V15.00,2017-09-20 21:34:00,
2017-09-20 14:35:00,54.6,50.2,29.75,SSW,192,3.0,8.0,85,0.00,,---,0.02,VWS V15.00,2017-09-20 21:35:00,
2017-09-20 14:36:00,54.6,50.5,29.75,South,182,8.0,9.0,86,0.00,,---,0.02,VWS V15.00,2017-09-20 21:36:00,
2017-09-20 14:37:00,54.6,50.5,29.75,South,183,7.0,9.0,86,0.00,,---,0.02,VWS V15.00,2017-09-20 21:37:00,
2017-09-20 14:38:00,54.6,50.2,29.76,South,187,7.0,9.0,85,0.00,,---,0.02,VWS V15.00,2017-09-20 21:38:00,
2017-09-20 14:39:00,54.6,50.2,29.76,South,190,6.0,9.0,85,0.00,,---,0.02,VWS V15.00,2017-09-20 21:39:00,
2017-09-20 14:40:00,54.6,50.2,29.76,South,190,3.0,9.0,85,0.00,,---,0.02,VWS V15.00,2017-09-20 21:40:00,
2017-09-20 15:29:00,48.8,46.6,29.69,WNW,282,6.0,8.0,92,0.00,,---,0.00,VWS V15.00,2017-09-20 22:29:00,
2017-09-20 15:34:00,54.5,50.1,29.75,SSW,192,4.0,4.0,85,0.00,,---,0.02,VWS V15.00,2017-09-20 22:34:00,
2017-09-20 15:39:00,54.6,50.2,29.76,South,181,3.0,6.0,85,0.00,,---,0.02,VWS V15.00,2017-09-20 22:39:00,
2017-09-20 15:44:00,55.0,50.3,29.76,South,183,6.0,7.0,84,0.00,,---,0.02,VWS V15.00,2017-09-20 22:44:00,
2017-09-20 15:49:00,54.1,49.1,29.76,East,84,15.0,16.0,83,0.00,,---,0.02,VWS V15.00,2017-09-20 22:49:00,
2017-09-20 15:54:00,54.3,48.9,29.76,ESE,105,11.0,13.0,82,0.00,,---,0.02,VWS V15.00,2017-09-20 22:54:00,
2017-09-20 15:59:00,54.4,49.0,29.76,East,94,14.0,14.0,82,0.00,,---,0.02,VWS V15.00,2017-09-20 22:59:00,